Weather History for Lincolnton, NC

Change the Weather History Date:

Wednesday, February 19, 2014

  Actual Average (KCLT) Record (KCLT)
Temperature  
Mean Temperature 58 °F 45 °F  
Max Temperature 74 °F 56 °F 76 °F (1939)
Min Temperature 42 °F 34 °F 8 °F (1958)
Degree Days  
Heating Degree Days 8 20  
Month to date heating degree days 420  
Since 1 July heating degree days 2527  
Cooling Degree Days 0 0  
Month to date cooling degree days 0  
Year to date cooling degree days 0  
Growing Degree Days 8 (Base 50)    
Moisture  
Dew Point 49 °F    
Average Humidity 79    
Maximum Humidity 99    
Minimum Humidity 42    
Precipitation  
Precipitation 0.24 in 0.13 in 2.08 in (1884)
Month to date precipitation 2.16  
Year to date precipitation 5.57  
Snow  
Snow 0.00 in 0.00 in 1.40 in (1999)
Month to date snowfall 0.8  
Since 1 July snowfall 3.3  
Snow Depth -    
Sea Level Pressure  
Sea Level Pressure 29.98 in    
Wind  
Wind Speed 4 mph (WSW)    
Max Wind Speed 18 mph    
Max Gust Speed 28 mph    
Visibility 8 miles    
Events Fog , Rain    
T = Trace of Precipitation, MM = Missing Value Source: NWS Daily Summary

Daily Weather History Graph

Daily Weather History Graph

Search for Another Location

Airport:

Trip Planner

Search our weather history database for the weather conditions in past years. The results will help you decide how hot, cold, wet, or windy it might be!

Date:

Astronomy

Feb. 19, 2014 Rise Set
Actual Time 7:06 AM EST 6:10 PM EST
Civil Twilight 6:40 AM EST 6:36 PM EST
Nautical Twilight 6:11 AM EST 7:06 PM EST
Astronomical Twilight 5:41 AM EST 7:35 PM EST
Moon 10:50 PM EST (2/19) 9:22 AM EST (2/19)
Length of Visible Light 11h 55m
Length of Day
11h 03m
Waning Gibbous, 80% of the Moon is Illuminated
Feb 19
Waning Gibbous
Feb 22
Last Quarter
Mar 1
New
Mar 8
First Quarter
Mar 16
Full

Hourly Weather History & Observations

Time (EST) Temp. Windchill Dew Point Humidity Pressure Visibility Wind Dir Wind Speed Gust Speed Precip Events Conditions
12:15 AM 42.8 °F - 33.6 °F 70% 30.06 in 10.0 mi Calm Calm - N/A   Overcast
12:55 AM 43.0 °F - 35.2 °F 74% 30.04 in 10.0 mi Calm Calm - N/A   Overcast
1:15 AM 43.5 °F - 35.1 °F 72% 30.04 in 10.0 mi Calm Calm - N/A   Overcast
1:35 AM 44.1 °F - 34.9 °F 70% 30.03 in 10.0 mi Calm Calm - N/A   Overcast
1:55 AM 44.1 °F - 36.7 °F 75% 30.02 in 10.0 mi Calm Calm - N/A   Overcast
2:15 AM 44.2 °F - 38.5 °F 80% 30.04 in 7.0 mi Calm Calm - 0.01 in Rain Rain
2:35 AM 46.2 °F 44.1 °F 41.5 °F 84% 30.02 in 5.0 mi SSW 4.6 mph - 0.07 in Rain Rain
2:55 AM 44.4 °F - 42.8 °F 94% 29.99 in 5.0 mi Calm Calm - 0.13 in Rain Rain
3:15 AM 45.5 °F - 44.2 °F 95% 29.98 in 2.5 mi Calm Calm - 0.08 in Rain Heavy Rain
3:35 AM 45.5 °F - 44.6 °F 97% 29.98 in 4.0 mi Calm Calm - 0.09 in   Drizzle
3:55 AM 45.5 °F - 44.8 °F 97% 29.99 in 3.0 mi Calm Calm - 0.09 in Rain Light Rain
4:15 AM 45.7 °F - 45.0 °F 97% 29.98 in 2.0 mi Calm Calm - 0.02 in Rain Light Rain
4:35 AM 45.9 °F - 45.1 °F 97% 29.95 in 1.0 mi Calm Calm - 0.02 in   Overcast
4:55 AM 48.4 °F - 47.5 °F 97% 29.96 in 2.5 mi WSW 5.8 mph - 0.02 in   Overcast
5:15 AM 48.2 °F - 47.5 °F 97% 29.95 in 1.0 mi Calm Calm - N/A   Overcast
5:35 AM 46.4 °F - 45.7 °F 97% 29.95 in 0.2 mi Calm Calm - N/A Fog Fog
5:55 AM 46.4 °F - 45.7 °F 97% 29.96 in 0.2 mi Calm Calm - N/A Fog Fog
6:15 AM 47.7 °F - 46.9 °F 97% 29.95 in 0.2 mi Calm Calm - N/A Fog Fog
6:35 AM 49.3 °F - 48.9 °F 99% 29.95 in 1.0 mi SW 3.5 mph - N/A   Overcast
6:55 AM 51.3 °F - 50.7 °F 98% 29.94 in 7.0 mi Calm Calm - N/A   Overcast
7:15 AM 52.0 °F - 51.4 °F 98% 29.93 in 4.0 mi SW 4.6 mph - N/A   Overcast
7:35 AM 52.7 °F - 52.2 °F 98% 29.94 in 2.5 mi SW 5.8 mph - N/A   Overcast
7:55 AM 53.8 °F - 53.4 °F 99% 29.95 in 4.0 mi WSW 3.5 mph - N/A   Overcast
8:15 AM 55.0 °F - 54.5 °F 98% 29.95 in 5.0 mi SW 8.1 mph - N/A   Overcast
8:35 AM 55.9 °F - 55.4 °F 98% 29.96 in 5.0 mi SW 8.1 mph - N/A   Overcast
8:55 AM 57.0 °F - 55.9 °F 96% 29.96 in 7.0 mi WSW 11.5 mph 20.7 mph N/A Rain Light Rain
9:15 AM 58.1 °F - 56.3 °F 94% 29.96 in 10.0 mi WSW 15.0 mph 18.4 mph N/A   Overcast
9:35 AM 58.1 °F - 56.1 °F 93% 29.96 in 10.0 mi WSW 13.8 mph - N/A Rain Light Rain
9:55 AM 59.9 °F - 56.8 °F 90% 29.97 in 10.0 mi West 10.4 mph 18.4 mph N/A   Overcast
10:15 AM 59.0 °F - 56.3 °F 91% 29.96 in 10.0 mi WSW 9.2 mph - N/A   Overcast
10:35 AM 59.9 °F - 57.0 °F 90% 29.97 in 10.0 mi WSW 11.5 mph - N/A   Overcast
10:55 AM 60.4 °F - 57.0 °F 88% 29.97 in 10.0 mi WSW 12.7 mph 18.4 mph N/A   Overcast
11:15 AM 62.6 °F - 57.6 °F 84% 29.97 in 10.0 mi WSW 11.5 mph - N/A   Overcast
11:35 AM 64.8 °F - 57.9 °F 78% 29.96 in 10.0 mi WSW 17.3 mph 20.7 mph N/A   Mostly Cloudy
11:55 AM 66.0 °F - 57.6 °F 74% 29.95 in 10.0 mi WSW 15.0 mph - N/A   Mostly Cloudy
12:15 PM 66.9 °F - 57.2 °F 71% 29.95 in 10.0 mi WSW 15.0 mph - N/A   Mostly Cloudy
12:35 PM 67.5 °F - 56.3 °F 67% 29.95 in 10.0 mi WSW 18.4 mph 27.6 mph N/A   Scattered Clouds
12:55 PM 70.0 °F - 56.7 °F 63% 29.95 in 10.0 mi WSW 17.3 mph 24.2 mph N/A   Mostly Cloudy
1:15 PM 70.7 °F - 54.9 °F 57% 29.94 in 10.0 mi WSW 18.4 mph 26.5 mph N/A   Scattered Clouds
1:35 PM 71.2 °F - 54.9 °F 56% 29.93 in 10.0 mi WSW 16.1 mph 20.7 mph N/A   Scattered Clouds
1:55 PM 71.8 °F - 53.8 °F 53% 29.93 in 10.0 mi SW 18.4 mph 24.2 mph N/A   Scattered Clouds
2:15 PM 72.5 °F - 53.1 °F 50% 29.92 in 10.0 mi WSW 17.3 mph 23.0 mph N/A   Scattered Clouds
2:35 PM 73.0 °F - 52.0 °F 48% 29.92 in 10.0 mi SW 13.8 mph 23.0 mph N/A   Scattered Clouds
2:55 PM 73.6 °F - 50.9 °F 45% 29.92 in 10.0 mi West 11.5 mph - N/A   Mostly Cloudy
3:15 PM 72.3 °F - 50.4 °F 46% 29.92 in 10.0 mi West 9.2 mph 20.7 mph N/A   Scattered Clouds
3:35 PM 71.1 °F - 50.4 °F 48% 29.93 in 10.0 mi West 5.8 mph - N/A   Scattered Clouds
3:55 PM 72.7 °F - 51.4 °F 47% 29.93 in 10.0 mi West 10.4 mph - N/A   Scattered Clouds
4:15 PM 73.4 °F - 50.2 °F 44% 29.93 in 10.0 mi West 5.8 mph - N/A   Clear
4:35 PM 73.0 °F - 48.7 °F 42% 29.93 in 10.0 mi West 5.8 mph - N/A   Clear
4:55 PM 72.5 °F - 48.6 °F 43% 29.94 in 10.0 mi West 6.9 mph - N/A   Clear
5:15 PM 70.7 °F - 49.1 °F 46% 29.95 in 10.0 mi WSW 4.6 mph - N/A   Clear
5:35 PM 66.7 °F - 50.4 °F 56% 29.97 in 10.0 mi Calm Calm - N/A   Scattered Clouds
5:55 PM 69.4 °F - 48.4 °F 47% 29.97 in 10.0 mi Calm Calm - N/A   Scattered Clouds
6:15 PM 68.7 °F - 49.6 °F 51% 29.97 in 10.0 mi WSW 3.5 mph - N/A   Clear
6:35 PM 64.6 °F - 50.4 °F 60% 29.98 in 10.0 mi Calm Calm - N/A   Clear
6:55 PM 58.1 °F - 50.7 °F 76% 30.00 in 10.0 mi WSW 3.5 mph - N/A   Clear
7:15 PM 57.2 °F - 51.1 °F 80% 30.00 in 10.0 mi Calm Calm - N/A   Clear
7:35 PM 58.1 °F - 51.1 °F 77% 30.02 in 10.0 mi Calm Calm - N/A   Scattered Clouds
7:55 PM 56.1 °F - 49.6 °F 79% 30.02 in 10.0 mi West 3.5 mph - N/A   Scattered Clouds
8:15 PM 55.8 °F - 50.0 °F 81% 30.03 in 10.0 mi Calm Calm - N/A   Clear
8:35 PM 53.4 °F - 49.3 °F 86% 30.04 in 10.0 mi Calm Calm - N/A   Clear
8:55 PM 54.0 °F - 50.5 °F 88% 30.05 in 10.0 mi Calm Calm - N/A   Clear
9:15 PM 51.4 °F - 48.7 °F 90% 30.05 in 10.0 mi WSW 4.6 mph - N/A   Clear
9:35 PM 51.1 °F - 48.4 °F 90% 30.06 in 10.0 mi Calm Calm - N/A   Clear
9:55 PM 50.4 °F - 48.2 °F 92% 30.06 in 10.0 mi Calm Calm - N/A   Clear
10:15 PM 49.6 °F - 47.7 °F 93% 30.06 in 10.0 mi Calm Calm - N/A   Clear
10:35 PM 49.5 °F - 47.7 °F 94% 30.07 in 10.0 mi Calm Calm - N/A   Clear
10:55 PM 49.3 °F - 47.3 °F 93% 30.06 in 10.0 mi Calm Calm - N/A   Clear
11:35 PM 48.0 °F - 46.4 °F 94% 30.06 in 10.0 mi Calm Calm - N/A   Clear
11:55 PM 48.7 °F - 47.3 °F 95% 30.07 in 10.0 mi Calm Calm - N/A   Clear